Wind_Speed
15 10 10 8 6 6 5 5 7 8 7 6 6 8 9 9 13 16 16 16 15 16 17 21 21 25 25 23 27 32 32 30
15 12 12 11 10 9 7 7 4 3 3 5 7 8 9 12 14 16 17 17 17 17 15 13 15 17 21 24 28 30 32 31
17 15 13 12 9 9 8 5 2 5 10 13 14 15 17 19 20 20 20 21 21 21 22 23 23 22 21 21 21 23 27 29
17 14 14 12 11 7 2 3 7 12 14 14 14 18 20 23 24 24 23 22 21 22 22 23 24 26 27 27 26 27 28 27
21 19 16 13 8 3 2 7 12 14 15 19 23 23 22 23 22 20 20 20 20 21 21 22 24 25 25 25 25 24 23 26
24 20 16 10 5 2 6 9 14 15 18 25 27 22 22 21 20 20 18 16 17 19 20 21 22 22 22 22 22 25 27 27
22 17 12 7 3 4 7 11 15 16 20 28 28 23 21 20 20 19 16 16 19 21 21 21 20 20 20 20 21 20 21 23
16 2 10 4 3 5 7 11 15 18 23 29 28 21 19 18 17 14 15 18 21 24 23 23 23 22 21 21 20 20 20 21
12 12 4 4 4 5 8 11 16 20 26 30 27 20 18 15 14 15 17 23 24 26 27 25 25 24 22 19 19 20 19 20
9 6 3 4 4 6 8 13 17 22 25 26 24 22 18 17 17 17 20 24 24 27 29 27 27 25 22 20 20 20 19 19
7 4 3 3 5 6 10 14 18 22 23 24 22 21 19 18 17 18 21 24 25 30 29 24 25 26 22 23 24 23 23 23
7 4 2 4 5 7 10 13 18 20 23 25 22 19 18 19 19 18 21 25 29 33 29 24 22 23 19 18 18 19 20 20
3 3 3 5 6 8 10 14 16 19 24 24 23 21 18 19 20 17 22 30 29 26 22 21 21 20 18 19 20 20 20 21
2 1 3 7 7 8 11 15 15 19 24 25 27 19 17 19 20 20 25 28 26 27 22 19 19 20 19 19 22 21 21 22
3 3 4 6 7 9 13 14 14 19 24 27 27 17 16 19 22 23 26 29 28 28 20 18 20 20 21 20 20 20 21 21
6 4 4 5 8 10 12 11 13 19 24 27 23 14 17 19 22 23 27 32 28 23 17 18 17 18 18 19 21 21 22 24
6 4 3 4 6 9 10 8 12 18 24 26 20 16 17 19 22 25 26 29 27 20 17 18 19 19 18 18 21 22 21 24
4 1 2 5 8 7 6 8 13 18 22 23 19 19 17 19 23 21 24 28 25 22 22 21 20 18 19 21 24 19 20 19
4 4 6 8 10 9 8 11 13 19 21 24 20 18 17 20 24 25 21 26 24 24 24 21 19 19 18 20 22 19 18 16
Wind_Direction
185 185 190 188 186 201 205 231 239 235 245 265 273 281 278 270 279 285 286 285 282 281 279 272 271 270 269 265 265 269 265 260
179 187 191 186 192 211 228 229 195 224 261 289 297 306 294 293 291 290 288 285 284 281 279 278 280 278 274 267 262 259 259 255
182 189 190 185 188 190 179 193 254 321 328 331 328 321 316 313 306 300 295 292 286 280 278 277 275 271 269 271 273 270 264 256
181 172 165 171 166 160 162 339 340 342 338 334 325 321 320 318 312 310 307 303 297 292 289 285 281 276 274 273 271 269 268 262
164 164 163 165 161 150 348 346 348 346 345 340 331 327 328 330 327 323 318 317 317 312 306 298 289 284 278 273 267 264 261 261
157 156 158 163 144 55 353 349 346 347 345 343 338 328 328 329 327 323 323 328 331 328 322 315 310 304 296 286 274 266 261 260
144 150 151 146 106 14 354 351 349 349 345 346 341 332 328 325 323 325 329 335 338 337 329 324 315 306 299 296 291 285 274 268
129 174 175 103 20 2 357 349 348 348 347 348 346 337 332 326 327 332 336 335 338 344 337 324 320 314 307 292 289 289 287 278
189 165 116 46 354 346 351 345 349 348 348 350 354 350 346 342 338 338 335 339 332 337 333 330 319 314 308 299 288 288 291 286
175 150 74 21 338 347 345 351 353 352 354 356 355 354 351 345 340 331 333 330 326 326 325 318 322 315 303 295 289 287 287 282
168 145 75 352 335 336 350 353 355 353 355 354 344 342 338 336 333 336 326 325 319 319 319 313 317 320 303 295 290 287 284 279
160 127 39 336 338 346 353 353 350 353 355 353 346 342 338 334 332 324 320 317 316 316 317 307 311 315 312 306 301 293 291 290
120 27 330 352 347 348 353 344 345 350 351 352 348 334 330 335 332 323 326 322 321 328 321 308 308 311 307 301 300 297 291 290
102 27 341 348 348 354 347 343 342 347 349 347 347 336 331 336 338 332 330 336 332 329 325 317 317 314 306 298 302 292 292 288
17 3 344 344 354 355 347 341 341 347 346 347 347 341 340 344 345 343 338 339 333 331 322 315 310 309 311 309 305 301 297 293
7 349 351 359 351 344 339 334 343 344 345 348 356 359 353 345 343 341 336 341 341 343 335 335 331 317 315 310 306 306 302 301
14 55 32 342 321 324 327 337 338 344 349 350 358 358 351 348 344 340 341 341 344 345 342 336 336 336 332 324 315 303 297 301
98 78 359 322 325 340 346 334 335 343 350 356 359 356 354 348 343 344 344 342 344 347 344 337 326 323 322 324 329 312 306 306
76 359 338 335 332 327 318 326 337 338 352 1 359 356 348 343 1 360 350 343 349 349 343 334 330 329 320 326 324 322 310 307
Height
1527 1528 1530 1531 1531 1532 1533 1533 1534 1535 1535 1534 1533 1531 1529 1527 1525 1523 1521 1519 1517 1516 1514 1513 1512 1511 1511 1510 1510 1510 1510 1511
1525 1527 1529 1530 1531 1531 1531 1531 1532 1533 1533 1532 1531 1529 1527 1524 1522 1519 1517 1515 1513 1511 1510 1508 1507 1506 1505 1504 1502 1501 1502 1504
1523 1525 1527 1528 1528 1529 1530 1531 1531 1531 1530 1529 1527 1525 1522 1519 1516 1514 1511 1509 1508 1506 1504 1503 1502 1502 1501 1499 1497 1496 1495 1497
1521 1525 1526 1527 1528 1529 1529 1531 1530 1528 1527 1526 1524 1521 1518 1515 1511 1508 1505 1502 1501 1499 1497 1496 1495 1494 1493 1492 1491 1490 1489 1491
1520 1523 1526 1527 1528 1528 1529 1529 1527 1526 1524 1522 1519 1515 1512 1509 1506 1503 1500 1498 1496 1493 1491 1489 1488 1487 1486 1485 1484 1483 1482 1481
1518 1522 1525 1528 1527 1527 1527 1527 1525 1523 1521 1519 1515 1511 1508 1506 1503 1500 1497 1495 1493 1490 1487 1484 1481 1480 1479 1478 1477 1476 1475 1474
1521 1526 1525 1524 1525 1525 1526 1525 1523 1521 1519 1515 1511 1507 1505 1502 1499 1497 1494 1492 1490 1487 1484 1481 1478 1476 1474 1472 1470 1469 1469 1467
1526 1528 1527 1523 1524 1524 1523 1524 1521 1519 1516 1512 1508 1504 1501 1499 1496 1494 1492 1489 1487 1484 1480 1477 1474 1471 1469 1467 1465 1464 1463 1461
1530 1528 1525 1524 1525 1524 1522 1523 1519 1516 1513 1509 1505 1502 1499 1497 1495 1492 1490 1487 1484 1480 1477 1473 1470 1466 1463 1461 1460 1458 1457 1455
1529 1527 1525 1525 1526 1524 1523 1520 1518 1514 1511 1508 1504 1501 1499 1496 1493 1490 1488 1485 1481 1477 1473 1468 1465 1461 1458 1456 1454 1453 1451 1450
1528 1526 1525 1526 1525 1524 1521 1519 1516 1513 1510 1506 1503 1500 1497 1494 1490 1488 1485 1481 1477 1472 1467 1463 1459 1456 1452 1450 1448 1446 1444 1443
1527 1527 1526 1526 1524 1522 1520 1518 1515 1512 1509 1505 1501 1498 1494 1491 1487 1484 1480 1476 1471 1466 1461 1457 1454 1451 1448 1445 1443 1441 1438 1437
1529 1527 1527 1525 1522 1520 1519 1516 1514 1511 1507 1503 1498 1494 1491 1487 1484 1480 1476 1471 1465 1460 1455 1452 1449 1446 1443 1440 1438 1436 1433 1431
1529 1527 1525 1523 1521 1520 1518 1515 1513 1510 1505 1500 1496 1491 1487 1484 1481 1477 1472 1466 1460 1455 1450 1447 1444 1441 1438 1436 1433 1430 1428 1426
1527 1525 1523 1522 1521 1520 1517 1515 1512 1508 1503 1498 1492 1488 1485 1482 1478 1474 1469 1462 1455 1450 1445 1443 1439 1437 1434 1431 1427 1424 1422 1419
1527 1525 1524 1521 1520 1518 1516 1513 1510 1506 1501 1496 1490 1487 1484 1480 1476 1472 1466 1460 1453 1447 1443 1439 1435 1432 1429 1426 1422 1419 1416 1413
1527 1525 1523 1521 1519 1517 1515 1512 1508 1504 1499 1494 1490 1486 1483 1478 1474 1469 1464 1458 1451 1445 1441 1437 1433 1429 1426 1422 1418 1414 1411 1408
1525 1524 1522 1520 1518 1516 1513 1510 1507 1503 1498 1492 1488 1484 1481 1476 1471 1465 1461 1456 1449 1443 1439 1434 1430 1426 1423 1419 1414 1409 1405 1403
1526 1525 1522 1520 1518 1514 1511 1509 1505 1501 1496 1491 1487 1483 1479 1474 1469 1464 1459 1454 1447 1442 1436 1431 1427 1423 1419 1415 1411 1406 1401 1399